Voltar ao catálogo

BREEZE-M DEB

AtivoHEO
NORAD 36962·DEBRIS·🇷🇺 Russia

Lançado Feb 28, 2006 de Baikonur Cosmodrome

Loading…

Próximas Passagens (próximas 24 horas)

TLE

AtualizadoSource: Space-Track

Época: Sep 7, 2026, 16:00 UTC

1 36962U 06006CU  26250.66705329  .00028398  00000-0  14248-1 0  9991
2 36962  51.6108  14.8476 3888111 237.2102  79.3934  7.38163465267155

Acompanhe BREEZE-M DEB em tempo real com AllMySat

Download on the App Store